Location: Newark
(42.8200°N, 13.1900°E)
Time: 19:50:25
(UTC+00:00)

STARLINK-1276 - Pass Details

Date: 06 April 2020
Orbit: 549 x 550 km, 53.0° (Epoch: 01 June)

Event Time Altitude Azimuth Distance (km) Brightness Sun altitude
Exits shadow 01:41:37 23° 0° (N) 1,217 5.7 -29.8°
Drops below altitude 10° 01:44:27 10° 42° (NE) 1,854 7.2 -29.4°
Enters shadow 02:44:17 -66° 261° (W) 12,207 10.4 -20.7°
